This is the latest recevied weather packets stored in our database for station/object DH0DM-13. If no packets are shown the sender has not sent any weather packets the latest 10 day(s).
| Time | Temp. | Humidity | Pressure | Rain* | Wind** | Luminosity | Snow |
|---|---|---|---|---|---|---|---|
| 1787875400 | 20° C | 66% | 987.4 hPa | 0 mm | 4.92 m/s, 125° | - | - |
| 1787874800 | 19.44° C | 66% | 987.5 hPa | 0 mm | 7.6 m/s, 68° | - | - |
| 1787874198 | 19.44° C | 67% | 987.5 hPa | 0 mm | 4.92 m/s, 74° | - | - |
| 1787873597 | 19.44° C | 68% | 987.7 hPa | 0 mm | 6.71 m/s, 63° | - | - |
| 1787872997 | 18.89° C | 69% | 987.7 hPa | 0 mm | 6.71 m/s, 80° | - | - |
| 1787872396 | 19.44° C | 69% | 988 hPa | 0 mm | 4.02 m/s, 46° | - | - |
| 1787871795 | 19.44° C | 68% | 988 hPa | 0 mm | 4.92 m/s, 100° | - | - |
| 1787871194 | 19.44° C | 68% | 988.4 hPa | 0 mm | 4.47 m/s, 105° | - | - |
| 1787870593 | 19.44° C | 68% | 988.1 hPa | 0 mm | 2.24 m/s, 70° | - | - |
| 1787869992 | 19.44° C | 68% | 988.4 hPa | 0 mm | 4.92 m/s, 71° | - | - |
| 1787869391 | 19.44° C | 68% | 988.4 hPa | 0 mm | 7.6 m/s, 106° | - | - |
| 1787868790 | 19.44° C | 68% | 988.8 hPa | 0 mm | 6.71 m/s, 88° | - | - |
| 1787868189 | 19.44° C | 68% | 988.7 hPa | 0 mm | 6.26 m/s, 113° | - | - |
| 1787867588 | 19.44° C | 68% | 988.9 hPa | 0 mm | 4.92 m/s, 98° | - | - |
| 1787866987 | 19.44° C | 67% | 988.9 hPa | 0 mm | 4.02 m/s, 103° | - | - |
| 1787866386 | 19.44° C | 67% | 988.9 hPa | 0 mm | 6.71 m/s, 51° | - | - |
| 1787865786 | 20° C | 66% | 989.3 hPa | 0 mm | 7.15 m/s, 81° | - | - |
| 1787865185 | 20° C | 66% | 989.1 hPa | 0 mm | 4.92 m/s, 69° | - | - |
| 1787864584 | 20° C | 65% | 989.2 hPa | 0 mm | 4.92 m/s, 102° | - | - |
| 1787863983 | 20° C | 65% | 989.3 hPa | 0 mm | 1.34 m/s, 84° | - | - |
| 1787863382 | 20° C | 65% | 989.4 hPa | 0 mm | 3.58 m/s, 82° | - | - |
| 1787862781 | 20° C | 65% | 989.2 hPa | 0 mm | 5.81 m/s, 75° | - | - |
| 1787862180 | 20° C | 64% | 989.3 hPa | 0 mm | 2.24 m/s, 72° | - | - |
| 1787861579 | 20° C | 64% | 989.3 hPa | 0 mm | 6.71 m/s, 74° | - | - |
| 1787860978 | 20° C | 65% | 989.4 hPa | 0 mm | 2.68 m/s, 144° | - | - |
* Rain since midnight (hover to see other rain measurements)
** Current wind speed in m/s (hover to see current wind gust speed)